Regional Weather Roundup
Issued by NWS Charleston, SC

Current Version | Previous Version | Graphics & Text | Print | Product List | Glossary On
Versions: 1 2 3 4 5 6 7 8 9 10 11 12 13 14 15 16 17 18 19 20 21 22 23 24 25 26 27 28 29 30 31 32 33 34 35 36 37 38 39 40 41 42 43 44 45 46 47 48 49 50
000 ASUS42 KCHS 230427 RWRCHS REGIONAL WEATHER ROUNDUP NATIONAL WEATHER SERVICE CHARLESTON SC 1200 AM EDT THU MAR 23 2017 NOTE: "FAIR" INDICATES FEW OR NO CLOUDS BELOW 12,000 FEET WITH NO SIGNIFICANT WEATHER AND/OR OBSTRUCTIONS TO VISIBILITY. NOT ALL STATIONS ARE QUALITY CONTROLLED. USE DATA WITH CAUTION... ESPECIALLY DEWPOINT OBSERVATIONS. SCZ027-030-031-034>040-042>050-230500- ...SOUTHEAST SOUTH CAROLINA... CITY SKY/WX TMP DP RH WIND PRES REMARKS N CHARLESTON PTCLDY 55 49 80 NE10 30.31R WATERFRONT PRK N/A 59 53 80 NE12 30.29R JOHNS ISLAND FAIR 59 50 72 NE12G18 30.31R PINOPOLIS N/A 55 50 82 E7 30.22R MONCKS CORNER FAIR 54 46 76 E7 30.33R SUMMERVILLE FAIR 50 41 71 CALM 30.33R BEAUFORT MCAS PTCLDY 59 54 83 NE9 30.28R BEAUFORT ARPT FAIR 59 52 77 NE13 30.28R HILTON HEAD IS PTCLDY N/A N/A N/A NE12G20 30.28R WALTERBORO CLEAR 54 39 58 NE5 30.32R ALLENDALE FAIR 57 32 38 CALM 30.29S ...SOUTHERN MIDLANDS AND PEE DEE... CITY SKY/WX TMP DP RH WIND PRES REMARKS GEORGETOWN FAIR 52 41 66 NE15G23 30.36R KINGSTREE CLOUDY 52 43 71 E9 30.36R ORANGEBURG CLEAR 52 32 46 NE5 30.32R BARNWELL FAIR 55 34 44 NE6 30.31R AIKEN FAIR 50 30 46 E3 30.35R MANNING FAIR 48 37 66 E3 30.34R COLUMBIA PTCLDY 54 31 41 NE6 30.32R SUMTER CLEAR 47 31 53 NE14 30.32R FLORENCE CLEAR 50 29 44 E12 30.37R MYRTLE BEACH CLEAR 52 39 61 NE18G25 30.38R N MYRTLE BEACH CLEAR 50 36 58 NE15 30.38R $$ GAZ063-065-086>088-099>101-113>116-118-119-134>141-150-230500- ...SOUTHEAST GEORGIA... CITY SKY/WX TMP DP RH WIND PRES REMARKS SAVANNAH ARPT MOCLDY 60 51 72 NE10 30.27R HUNTER AAF PTCLDY 61 55 81 NE8 30.24R FORT STEWART CLOUDY 61 52 73 NE6 30.24R STATESBORO CLEAR 59 54 81 E5 30.29R SYLVANIA PTCLDY N/A N/A N/A E8G16 30.30R CLAXTON FAIR N/A N/A N/A NE6 30.28R ...CSRA...CENTRAL AND FAR SOUTHEAST GEORGIA... CITY SKY/WX TMP DP RH WIND PRES REMARKS THOMSON PTCLDY 55 30 39 MISG 30.35R AUGUSTA-BUSH CLEAR 58 31 35 E9 30.30R AUGUSTA-DANIEL CLEAR 58 27 30 E9 30.30R SWAINSBORO CLOUDY 61 34 36 E10G17 30.29R VIDALIA PTCLDY 63 52 67 E8 30.27R EASTMAN CLOUDY 68 34 29 E7 30.26R HAZLEHURST MOCLDY 64 54 69 E10 30.25R ALMA PTCLDY 61 53 75 E6 30.24R WAYCROSS CLEAR 63 59 87 E3 30.23S JESUP FAIR 61 54 77 NE3 30.26R BAXLEY CLOUDY 63 59 88 E8 30.25R BRUNSWICK PTCLDY 63 59 88 NE9 30.24R SAINT SIMONS PTCLDY 64 57 78 NE10 30.22R $$ SCZ027-028-034-036>038-045-046-048>050-GAZ119-141-230500- ...LAKE AND SUPPLEMENTAL COASTAL OBSERVATIONS... STATION/POSITION TIME TEMP WIND PRES WAVE SWELL AIR SEA DIR/SP/G HT/PER HT/PER/DIR (UTC) (F) (DEG/KT/KT) (MB) (FT/S) (FT/S/D) WINYAH BAY 0345 55 70/ 18 1027.0R LAKE MURRAY 0330 55 50/ 2/ 3 1026.1R ACE BASIN NERRS 0345 58 40/ 4 1025.0S FORT PULASKI 0400 61 61 60/ 16/ 20 1025.1 SAPELO ISLAND 0400 63 50/ 8 1024.0 $$ ANZ835-935-AMZ111-154-330-350-352-354-370-450-454-472-230500- ...C-MAN AND BUOY OBSERVATIONS... STATION/POSITION TIME TEMP WIND PRES WAVE SWELL AIR SEA DIR/SP/G HT/PER HT/PER/DIR (UTC) (F) (DEG/KT/KT) (MB) (FT/S) (FT/S/D) BUOY 41004 0350 62 66 50/ 23/ 27 1024.5R 7/ 8 BUOY 41008 0350 64 62 70/ 16/ 17 1023.1R 5/ 7 2/130/11 FOLLY BEACH CMAN 0400 60 60/ 19/ 21 1026.6R CAPERS NEARSHORE 0308 60 60/ 16/ 21 1025.7 FRIPP NEARSHORE 0408 61 60 60/ 17/ 25 1025.1R STATION/POSITION TIME TEMP WIND PRES WAVE SWELL AIR SEA DIR/SP/G HT/PER HT/PER/DIR (UTC) (F) (DEG/KT/KT) (MB) (FT/S) (FT/S/D) 5E ST. MARYS GA 0400 64 N/A 4/ 6 2/ 80/11 FRYING PAN BUOY 0410 56 63 40/ 23/ 31 1027.5 BUOY 41025 0350 47 74 30/ 19/ 25 1029.8R 11/11 8/ 60/11 CAPE LOOKOUT NC 0400 47 30/ 21/ 25 1029.8R BUOY 41002 0350 62 73 20/ 25/ 31 1022.9R 10/10 7/ 20/10 BUOY 41010 NOT AVBL ST AUGUSTINE FL 0400 67 66 30/ 7/ 8 1022.7R $$

USA.gov is the U.S. government's official web portal to all federal, state and local government web resources and services.